Zurück zum Katalog

DMSP 5D-2 F13 DEB

AktivSSO
NORAD 40563·DEBRIS·🇺🇸 United States

Gestartet Mar 24, 1995 von Vandenberg Space Force Base

Loading…

Nächste Überflüge (nächste 24 Stunden)

TLE

AktuellSource: Space-Track

Epoche: Sep 14, 2026, 08:26 UTC

1 40563U 95015DW  26257.35141179  .00003256  00000-0  93729-3 0  9990
2 40563  98.6478 301.6781 0017814  70.1386 290.1723 14.45353279595886

Verfolge DMSP 5D-2 F13 DEB in Echtzeit mit AllMySat

Download on the App Store